Terug naar catalogus

STARLINK-34191

ActiefCommunicatieVLEO
NORAD 64176·PAYLOAD·🇺🇸 United States

Gelanceerd May 28, 2025 vanaf Cape Canaveral Space Force Station

Loading…

Volgende Passages (komende 24 uur)

TLE

VersSource: CelesTrak SupGP

Epoch: Sep 14, 2026, 22:40 UTC

1 64176C 25113G   26257.94493056  .00049789  00000+0  14712-2 0  2578
2 64176  53.1570 287.8931 0001085  91.3239 127.5745 15.34363489    14

Volg STARLINK-34191 in realtime met AllMySat

Download on the App Store